Location: Ravensburg
(47.7866°N, 9.6124°E)
Time: 17:37:17
(UTC+01:00)

CUBEBUG 2 - Visible Passes

Search period start: 14 March 2026 00:00
Search period end: 24 March 2026 00:00
Orbit: 548 x 629 km, 97.9° (Epoch: 14 March)

Date Brightness Start Highest point End Pass type
(mag) Time Alt. Az. Time Alt. Az. Time Alt. Az.
14 Mar ? 02:48:38 10° NNE 02:49:27 15° NNE 02:49:27 15° NNE visible
14 Mar ? 04:25:47 10° NNW 04:25:58 10° NNW 04:25:58 10° NNW visible
15 Mar ? 02:56:11 10° NNE 02:57:13 17° NNE 02:57:13 17° NNE visible
16 Mar ? 03:03:44 10° N 03:04:58 19° N 03:04:58 19° N visible
17 Mar ? 03:11:17 10° N 03:12:43 20° N 03:12:43 20° N visible
18 Mar ? 03:18:51 10° N 03:20:26 21° N 03:20:26 21° N visible
19 Mar ? 01:51:28 10° NE 01:51:38 11° NE 01:51:38 11° NE visible
19 Mar ? 03:26:25 10° N 03:28:09 22° N 03:28:09 22° N visible
20 Mar ? 01:58:46 10° NE 01:59:21 13° NE 01:59:21 13° NE visible
20 Mar ? 03:33:59 10° N 03:35:51 22° NNW 03:35:51 22° NNW visible
21 Mar ? 02:06:05 10° NNE 02:07:02 15° NE 02:07:02 15° NE visible
21 Mar ? 03:41:33 10° N 03:43:33 22° NNW 03:43:33 22° NNW visible
22 Mar ? 02:13:26 10° NNE 02:14:42 18° NE 02:14:42 18° NE visible
22 Mar ? 03:49:08 10° N 03:51:13 21° NNW 03:51:13 21° NNW visible
23 Mar ? 02:20:47 10° NNE 02:22:22 21° NE 02:22:22 21° NE visible
23 Mar ? 03:56:44 10° NNW 03:58:53 20° NW 03:58:53 20° NW visible
